Weather History for Fort Wayne, IN

Change the Weather History Date:

Saturday, August 24, 2013

  Actual Average Record
Temperature  
Mean Temperature 68 °F 71 °F  
Max Temperature 82 °F 82 °F 95 °F (1962)
Min Temperature 53 °F 60 °F 44 °F (1987)
Degree Days  
Heating Degree Days 0 0  
Month to date heating degree days 10 0  
Since 1 June heating degree days 39 32  
Since 1 July heating degree days 20 3  
Cooling Degree Days 3 6  
Month to date cooling degree days 116 170  
Year to date cooling degree days 649 676  
Since 1 June cooling degree days 544 619  
Growing Degree Days 18 (Base 50)    
Moisture  
Dew Point 56 °F    
Average Humidity 64    
Maximum Humidity 90    
Minimum Humidity 30    
Precipitation  
Precipitation 0.00 in 0.11 in 1.61 in (1999)
Month to date precipitation 5.07 2.85  
Year to date precipitation 32.33 26.05  
Snow  
Snow 0.00 in 0.00 in 0.00 in (2002)
Month to date snowfall 0.0 0.0  
Since 1 June snowfall 0.0 0.0  
Since 1 July snowfall 0.0 0.0  
Snow Depth 0.00 in    
Sea Level Pressure  
Sea Level Pressure 30.26 in    
Wind  
Wind Speed 3 mph (East)    
Max Wind Speed 14 mph    
Max Gust Speed 17 mph    
Visibility 10 miles    
Events      
T = Trace of Precipitation, MM = Missing Value Source: NWS Daily Summary

Daily Weather History Graph

Daily Weather History Graph

Search for Another Location

Airport:

Trip Planner

Search our weather history database for the weather conditions in past years. The results will help you decide how hot, cold, wet, or windy it might be!

Date:

Astronomy

Aug. 24, 2013 Rise Set
Actual Time 6:59 AM EDT 8:25 PM EDT
Civil Twilight 6:31 AM EDT 8:54 PM EDT
Nautical Twilight 5:56 AM EDT 9:28 PM EDT
Astronomical Twilight 5:19 AM EDT 10:05 PM EDT
Moon 10:16 PM EDT (8/24) 11:01 AM EDT (8/24)
Length of Visible Light 14h 23m
Length of Day
13h 25m
Waning Gibbous, 84% of the Moon is Illuminated
Aug 24
Waning Gibbous
Aug 28
Last Quarter
Sep 5
New
Sep 12
First Quarter
Sep 19
Full

Hourly Weather History & Observations

Time (EDT) Temp. Heat Index Dew Point Humidity Pressure Visibility Wind Dir Wind Speed Gust Speed Precip Events Conditions
12:54 AM 61.0 °F - 57.0 °F 87% 30.19 in 10.0 mi Calm Calm - N/A   Partly Cloudy
1:54 AM 61.0 °F - 55.0 °F 81% 30.19 in 10.0 mi Calm Calm - N/A   Partly Cloudy
2:54 AM 59.0 °F - 54.0 °F 83% 30.20 in 10.0 mi NNE 3.5 mph - N/A   Clear
3:54 AM 57.0 °F - 54.0 °F 89% 30.22 in 10.0 mi Calm Calm - N/A   Clear
4:54 AM 57.0 °F - 53.1 °F 87% 30.22 in 10.0 mi Calm Calm - N/A   Clear
5:54 AM 55.0 °F - 52.0 °F 89% 30.25 in 10.0 mi ENE 4.6 mph - N/A   Clear
6:54 AM 54.0 °F - 51.1 °F 90% 30.27 in 10.0 mi NNE 4.6 mph - N/A   Partly Cloudy
7:54 AM 59.0 °F - 55.0 °F 87% 30.29 in 10.0 mi Calm Calm - N/A   Partly Cloudy
8:54 AM 63.0 °F - 57.0 °F 81% 30.30 in 10.0 mi ENE 5.8 mph - N/A   Partly Cloudy
9:54 AM 69.1 °F - 57.0 °F 65% 30.31 in 10.0 mi ENE 6.9 mph - N/A   Scattered Clouds
10:54 AM 73.0 °F - 57.0 °F 57% 30.31 in 10.0 mi East 6.9 mph - N/A   Scattered Clouds
11:54 AM 75.9 °F - 55.0 °F 48% 30.30 in 10.0 mi East 10.4 mph - N/A   Scattered Clouds
12:54 PM 78.1 °F - 54.0 °F 43% 30.29 in 10.0 mi ESE 10.4 mph - N/A   Scattered Clouds
1:54 PM 79.0 °F - 53.1 °F 40% 30.28 in 10.0 mi ESE 9.2 mph - N/A   Scattered Clouds
2:54 PM 80.1 °F 80.1 °F 55.0 °F 42% 30.27 in 10.0 mi SE 10.4 mph 16.1 mph N/A   Scattered Clouds
3:54 PM 80.1 °F 80.0 °F 54.0 °F 40% 30.27 in 10.0 mi ESE 3.5 mph - N/A   Scattered Clouds
4:54 PM 81.0 °F 80.7 °F 55.0 °F 41% 30.26 in 10.0 mi Calm Calm - N/A   Partly Cloudy
5:54 PM 82.0 °F 81.4 °F 55.0 °F 39% 30.25 in 10.0 mi Calm Calm - N/A   Partly Cloudy
6:54 PM 80.1 °F 80.2 °F 55.9 °F 43% 30.25 in 10.0 mi Calm Calm - N/A   Partly Cloudy
7:54 PM 75.9 °F - 59.0 °F 56% 30.25 in 10.0 mi ENE 5.8 mph - N/A   Partly Cloudy
8:54 PM 68.0 °F - 60.1 °F 76% 30.26 in 10.0 mi Calm Calm - N/A   Partly Cloudy
9:54 PM 66.0 °F - 59.0 °F 78% 30.27 in 10.0 mi Calm Calm - N/A   Clear
10:54 PM 66.0 °F - 57.9 °F 75% 30.26 in 10.0 mi SE 3.5 mph - N/A   Clear
11:54 PM 64.0 °F - 57.0 °F 78% 30.27 in 10.0 mi East 3.5 mph - N/A   Partly Cloudy